Starlink 5120

operational
NORAD ID: 53982 Int'l Des: 2022-125 Owner: SPXS Country: US Constellation: starlink
LEOCIRCULAR

Starlink 5120について

説明を読み込み中...

リアルタイム位置

3D地球を読み込み中...

次回通過

高度履歴

Altitude vs Time

uPlot chart will show altitude changes over time

軌道要素

1 53982U 22125U 25351.03283018 -.00001159 00000-0 -54784-4 0 9990
2 53982 53.2175 225.2138 0001708 89.1628 270.9560 15.08824376176978
Epoch: Dec 17, 2025 • Age: 18 hours

現在のステータス

高度 543.1 km
速度 7.59 km/s
衛星直下点 -11.25°S, 36.65°E
打ち上げ日 Oct 5, 2022
運用期間 3.1 years
タイプ internet

技術仕様

分類 Payload
質量 305.00 kg
乾燥質量 290.00 kg
総質量 305.00 kg
長さ 0.20 m
直径 2.80 m
スパン 9.00 m
形状 Box + pan
製造者 SPXS
バスタイプ Starlink
フェーズステータス In Orbit
所有者/国 SPXS/US

大規模コンステレーション

Loading constellations...